E7874 Weather Reports


Display with metric or nautical units.
time (UTC)temp
F
wind
direction
speed
MPH
gust
MPH
rain 1hr
in
rain 24hr
in
rain mn
in
humidity
%
barometer
mb
20260507103551 72 342 0.0 0.0 0.00 0.14 0.14 60 1013.7
20260507103048 72 338 0.0 0.0 0.00 0.14 0.14 62 1013.8
20260507102550 72 330 0.0 0.0 0.00 0.14 0.14 59 1013.8
20260507102048 72 292 0.0 0.0 0.00 0.14 0.14 55 1013.9
20260507101545 72 292 0.0 0.0 0.00 0.14 0.14 59 1013.9
20260507101040 72 282 0.0 0.0 0.00 0.14 0.14 61 1014.0
20260507100530 72 282 0.0 0.0 0.00 0.14 0.14 60 1014.1
20260507100020 71 244 0.0 0.0 0.00 0.14 0.14 62 1014.1
20260507095519 71 290 0.0 0.0 0.00 0.14 0.14 62 1014.0
20260507095016 71 273 0.0 0.0 0.00 0.14 0.14 64 1014.0
20260507094515 71 292 0.0 0.0 0.00 0.14 0.14 65 1014.0
20260507094014 70 292 0.0 0.0 0.00 0.14 0.14 66 1014.0
20260507093518 70 287 0.0 0.0 0.00 0.14 0.14 66 1014.0
20260507093011 69 287 0.0 0.0 0.00 0.14 0.14 67 1014.0
20260507092513 69 286 0.0 0.0 0.00 0.14 0.14 69 1014.0
20260507092017 69 286 0.0 0.0 0.00 0.14 0.14 67 1014.1
20260507091623 69 277 0.0 0.0 0.00 0.14 0.14 69 1014.0
20260507090456 68 277 0.0 0.0 0.00 0.14 0.14 70 1014.0
20260507085951 67 280 0.0 0.0 0.00 0.14 0.14 72 1014.1
20260507085506 67 308 0.0 0.0 0.00 0.14 0.14 73 1014.2
20260507085121 66 316 1.0 4.0 0.00 0.14 0.14 75 1014.3
20260507084739 66 316 2.0 4.0 0.00 0.14 0.14 74 1014.3
20260507082528 65 316 4.0 6.0 0.00 0.14 0.14 75 1014.5
20260507081428 66 301 3.0 9.0 0.00 0.14 0.14 75 1014.4
20260507080931 66 340 1.0 9.0 0.00 0.14 0.14 76 1014.3
20260507080416 66 344 0.0 0.0 0.00 0.14 0.14 79 1014.3
20260507075913 66 331 0.0 0.0 0.00 0.14 0.14 79 1014.2
20260507075415 65 11 0.0 0.0 0.00 0.14 0.14 79 1014.2
20260507074905 65 11 0.0 0.0 0.00 0.14 0.14 78 1014.3
20260507074407 64 11 0.0 0.0 0.00 0.14 0.14 80 1014.3
20260507073904 64 11 0.0 0.0 0.00 0.14 0.14 80 1014.3
20260507073406 63 11 0.0 0.0 0.00 0.14 0.14 84 1014.3
20260507072903 62 11 0.0 0.0 0.00 0.14 0.14 82 1014.3
20260507072354 62 10 0.0 0.0 0.00 0.14 0.14 83 1014.4
20260507071856 62 10 0.0 0.0 0.00 0.14 0.14 86 1014.4
20260507071352 61 9 0.0 0.0 0.00 0.14 0.14 85 1014.4
20260507070843 61 9 0.0 0.0 0.00 0.14 0.14 85 1014.4
20260507070347 61 9 0.0 0.0 0.00 0.14 0.14 87 1014.4
20260507065840 60 11 0.0 0.0 0.00 0.14 0.14 86 1014.3
20260507065341 60 11 0.0 0.0 0.00 0.14 0.14 87 1014.3
20260507064842 60 11 0.0 0.0 0.00 0.14 0.14 88 1014.3
20260507064339 60 11 0.0 0.0 0.00 0.14 0.14 88 1014.3
20260507063838 60 11 0.0 0.0 0.00 0.14 0.14 89 1014.3
20260507063325 59 11 0.0 0.0 0.00 0.14 0.14 89 1014.3
20260507062822 59 11 0.0 0.0 0.00 0.14 0.14 89 1014.2
20260507062317 59 11 0.0 0.0 0.00 0.14 0.14 90 1014.1
20260507061817 59 11 0.0 0.0 0.00 0.14 0.14 90 1014.1
20260507061318 59 11 0.0 0.0 0.00 0.14 0.14 90 1014.2
20260507060815 58 11 0.0 0.0 0.00 0.14 0.14 90 1014.0
20260507060425 58 11 0.0 0.0 0.00 0.14 0.14 90 1014.0
20260507054735 58 11 0.0 0.0 0.00 0.14 0.14 92 1013.9
20260507054226 58 11 0.0 0.0 0.00 0.14 0.14 93 1013.9
20260507053758 57 11 0.0 0.0 0.00 0.14 0.14 94 1013.9
20260507052703 56 63 0.0 0.0 0.00 0.14 0.14 94 1013.7
20260507052150 56 63 0.0 0.0 0.00 0.14 0.14 94 1013.7
20260507051645 55 122 0.0 0.0 0.00 0.14 0.14 93 1013.7
20260507051133 55 123 0.0 0.0 0.00 0.14 0.14 93 1013.7
20260507050628 55 138 0.0 0.0 0.00 0.14 0.14 94 1013.8
20260507050118 55 138 0.0 0.0 0.00 0.14 0.14 94 1013.8
20260507045716 55 138 0.0 0.0 0.00 0.14 0.14 94 1013.8
20260507044553 54 138 0.0 0.0 0.00 0.14 0.14 93 1013.7
20260507044142 54 138 0.0 0.0 0.00 0.14 0.14 93 1013.6
20260507043758 54 139 0.0 0.0 0.00 0.14 0.14 93 1013.6
20260507042126 55 139 0.0 0.0 0.00 0.14 0.14 93 1013.5
20260507041019 55 139 0.0 0.0 0.00 0.14 0.14 93 1013.5
20260507040516 55 138 0.0 0.0 0.00 0.14 0.14 93 1013.5
20260507040015 55 138 0.0 0.0 0.00 0.14 0.14 93 1013.4
20260507035524 55 138 0.0 0.0 0.00 0.14 0.14 93 1013.5
20260507035107 55 138 0.0 0.0 0.00 0.14 0.14 93 1013.4
20260507034004 55 138 0.0 0.0 0.01 0.14 0.14 92 1013.4
20260507033503 55 138 0.0 0.0 0.02 0.14 0.14 92 1013.5
20260507033056 55 138 0.0 0.0 0.02 0.14 0.14 92 1013.5
20260507031959 55 138 0.0 0.0 0.02 0.14 0.14 93 1013.4
20260507031458 55 138 0.0 0.0 0.02 0.14 0.14 93 1013.4
20260507030957 55 138 0.0 0.0 0.02 0.14 0.14 93 1013.5
20260507030439 55 138 0.0 0.0 0.02 0.14 0.14 92 1013.5
20260507030033 55 139 0.0 0.0 0.02 0.14 0.14 92 1013.4
20260507024933 55 138 0.0 0.0 0.02 0.14 0.14 92 1013.4
20260507024430 55 139 0.0 0.0 0.02 0.13 0.13 91 1013.4
20260507023927 55 139 0.0 0.0 0.02 0.13 0.13 91 1013.4
20260507023430 56 139 0.0 0.0 0.01 0.13 0.13 91 1013.4
20260507022925 56 139 0.0 0.0 0.01 0.13 0.13 91 1013.4
20260507022424 56 138 0.0 0.0 0.01 0.13 0.13 91 1013.4
20260507021924 56 139 0.0 0.0 0.00 0.12 0.12 91 1013.3
20260507021510 56 139 0.0 0.0 0.00 0.12 0.12 91 1013.4
20260507020407 56 138 0.0 0.0 0.01 0.12 0.12 91 1013.5
20260507015858 56 139 0.0 0.0 0.01 0.12 0.12 91 1013.5
20260507015349 56 139 0.0 0.0 0.01 0.12 0.12 91 1013.4
20260507014849 56 126 0.0 0.0 0.01 0.12 0.12 91 1013.4
20260507014347 56 126 0.0 0.0 0.01 0.12 0.12 91 1013.4
20260507013846 56 126 0.0 0.0 0.01 0.12 0.12 91 1013.4
20260507013343 56 108 0.0 0.0 0.02 0.12 0.12 91 1013.4
20260507012849 56 89 0.0 0.0 0.02 0.12 0.12 92 1013.4
20260507012343 56 55 0.0 0.0 0.02 0.12 0.12 92 1013.3
20260507011843 56 19 0.0 0.0 0.02 0.12 0.12 92 1013.3
20260507011339 56 19 0.0 0.0 0.03 0.12 0.12 92 1013.3
20260507010839 56 19 0.0 0.0 0.03 0.11 0.11 92 1013.4
20260507010340 56 19 0.0 0.0 0.03 0.11 0.11 92 1013.4
20260507005836 56 19 0.0 0.0 0.03 0.11 0.11 92 1013.4
20260507005336 56 19 0.0 0.0 0.03 0.11 0.11 92 1013.5
20260507004925 56 67 0.0 0.0 0.04 0.11 0.11 92 1013.4
20260507003836 56 132 0.0 0.0 0.04 0.11 0.11 91 1013.3
20260507003335 56 155 0.0 0.0 0.03 0.10 0.10 91 1013.3
20260507002831 56 155 0.0 0.0 0.03 0.10 0.10 91 1013.3
20260507002323 56 155 0.0 0.0 0.04 0.10 0.10 91 1013.3
20260507001823 56 210 0.0 0.0 0.03 0.09 0.09 91 1013.3
20260507001327 56 212 0.0 0.0 0.03 0.09 0.09 91 1013.5
20260507000847 56 212 0.0 0.0 0.03 0.08 0.08 91 1013.5
20260507000456 56 212 0.0 0.0 0.05 0.08 0.08 91 1013.5
20260506234806 56 142 0.0 0.0 0.07 0.07 0.07 90 1013.4
20260506234304 56 142 0.0 0.0 0.07 0.07 0.07 90 1013.4
20260506233809 56 142 0.0 0.0 0.07 0.07 0.07 89 1013.5
20260506233312 56 143 0.0 0.0 0.07 0.07 0.07 89 1013.4
20260506232759 56 172 0.0 0.0 0.07 0.07 0.07 89 1013.5
20260506232251 56 202 0.0 0.0 0.06 0.06 0.06 89 1013.6
20260506231748 56 202 0.0 0.0 0.06 0.06 0.06 89 1013.6
20260506231246 57 202 0.0 0.0 0.06 0.06 0.06 88 1013.7
20260506230739 57 202 0.0 0.0 0.04 0.04 0.05 88 1013.6
20260506230231 57 202 0.0 0.0 0.03 0.03 0.03 89 1013.7
20260506225729 57 139 0.0 0.0 0.02 0.02 0.02 89 1013.7
20260506225230 57 139 0.0 0.0 0.01 0.01 0.02 88 1013.7
20260506224726 57 139 0.0 0.0 0.00 0.00 0.00 87 1013.7
20260506224224 57 139 0.0 0.0 0.00 0.00 0.00 87 1013.7
20260506223725 57 150 0.0 0.0 0.00 0.00 0.00 87 1013.6
20260506223224 57 142 0.0 0.0 0.00 0.00 0.00 87 1013.6
20260506222718 57 140 0.0 0.0 0.00 0.00 0.00 86 1013.6
20260506222220 58 163 0.0 0.0 0.00 0.00 0.00 85 1013.6
20260506221716 58 180 0.0 0.0 0.00 0.00 0.00 85 1013.6
20260506221208 58 186 0.0 0.0 0.00 0.00 0.00 84 1013.5
20260506220656 58 141 2.0 8.0 0.00 0.00 0.00 83 1013.5
20260506220155 58 132 2.0 9.0 0.00 0.00 0.00 82 1013.4
20260506215657 58 130 1.0 9.0 0.00 0.00 0.00 82 1013.4
20260506215156 59 146 2.0 8.0 0.00 0.00 0.00 81 1013.5
20260506214655 59 154 5.0 14.0 0.00 0.00 0.00 80 1013.4
20260506214146 59 139 7.0 14.0 0.00 0.00 0.00 80 1013.3
20260506213650 59 140 3.0 13.0 0.00 0.00 0.00 79 1013.3
20260506213148 59 146 0.0 6.0 0.00 0.00 0.00 80 1013.4
20260506212645 59 134 0.0 0.0 0.00 0.00 0.00 82 1013.4
20260506212138 59 134 0.0 0.0 0.00 0.00 0.00 81 1013.4
20260506211634 59 134 0.0 0.0 0.00 0.00 0.00 81 1013.4
20260506211137 59 134 0.0 0.0 0.00 0.00 0.00 80 1013.3
20260506210738 59 138 0.0 3.0 0.00 0.00 0.00 79 1013.3
20260506210341 59 131 1.0 9.0 0.00 0.00 0.00 80 1013.2
20260506205926 59 157 0.0 9.0 0.00 0.00 0.00 81 1013.2
20260506204905 59 139 0.0 0.0 0.00 0.00 0.00 81 1013.2
20260506203819 59 128 0.0 0.0 0.00 0.00 0.00 82 1013.2
20260506203414 59 157 0.0 6.0 0.00 0.00 0.00 82 1013.2
20260506202953 59 165 0.0 6.0 0.00 0.00 0.00 82 1013.1
20260506201805 59 173 3.0 10.0 0.00 0.00 0.00 82 1013.1
20260506200001 59 150 0.0 0.0 0.00 0.00 0.00 83 1013.2
20260506195502 59 140 3.0 9.0 0.00 0.00 0.00 83 1013.3
20260506194944 59 160 5.0 13.0 0.00 0.00 0.00 83 1013.3
20260506194434 59 153 3.0 13.0 0.00 0.00 0.00 84 1013.3
20260506193925 59 142 0.0 9.0 0.00 0.00 0.00 85 1013.3
20260506193432 59 208 2.0 13.0 0.00 0.00 0.00 85 1013.4
20260506192926 59 142 6.0 14.0 0.00 0.00 0.00 85 1013.3
20260506192428 59 198 7.0 14.0 0.00 0.00 0.00 84 1013.3
20260506191909 59 184 6.0 13.0 0.00 0.00 0.00 84 1013.2
20260506191408 60 147 5.0 11.0 0.00 0.00 0.00 84 1013.3
20260506190856 60 186 4.0 12.0 0.00 0.00 0.00 83 1013.3
20260506190357 60 151 2.0 12.0 0.00 0.00 0.00 83 1013.2
20260506185859 60 163 3.0 12.0 0.00 0.00 0.00 83 1013.1
20260506185409 60 162 7.0 14.0 0.00 0.00 0.00 82 1013.0
20260506184858 60 182 7.0 14.0 0.00 0.00 0.00 82 1012.9
20260506184458 60 183 7.0 17.0 0.00 0.00 0.00 83 1012.8
20260506184054 60 190 8.0 17.0 0.00 0.00 0.00 83 1012.8
20260506182343 60 165 10.0 19.0 0.00 0.00 0.00 82 1012.7
20260506181842 60 158 10.0 19.0 0.00 0.00 0.00 81 1012.7
20260506181339 61 150 10.0 17.0 0.00 0.00 0.00 80 1012.7
20260506180920 61 145 10.0 17.0 0.00 0.00 0.00 79 1012.6
20260506175826 61 159 3.0 14.0 0.00 0.00 0.00 77 1012.5
20260506175330 61 177 3.0 11.0 0.00 0.00 0.00 78 1012.5
20260506174831 61 173 3.0 9.0 0.00 0.00 0.00 77 1012.5
20260506174329 62 129 4.0 15.0 0.00 0.00 0.00 76 1012.4
20260506173826 62 164 6.0 15.0 0.00 0.00 0.00 74 1012.4
20260506173317 62 151 6.0 13.0 0.00 0.00 0.00 72 1012.4
20260506172818 63 198 4.0 11.0 0.00 0.00 0.00 72 1012.4
20260506172320 63 167 4.0 12.0 0.00 0.00 0.00 72 1012.3
20260506171814 63 147 5.0 12.0 0.00 0.00 0.00 72 1012.3
20260506171318 63 154 4.0 11.0 0.00 0.00 0.00 72 1012.3
20260506170806 63 157 3.0 10.0 0.00 0.00 0.00 72 1012.2
20260506170307 63 140 4.0 10.0 0.00 0.00 0.00 72 1012.3
20260506165805 63 181 6.0 10.0 0.00 0.00 0.00 72 1012.2
20260506165312 63 155 7.0 11.0 0.00 0.00 0.00 71 1012.2
20260506164806 63 136 7.0 13.0 0.00 0.00 0.00 70 1012.2
20260506164324 63 155 8.0 15.0 0.00 0.00 0.00 70 1012.2
20260506163944 64 182 8.0 15.0 0.00 0.00 0.00 69 1012.1
20260506163007 64 164 8.0 12.0 0.00 0.00 0.00 68 1012.1
20260506162007 64 172 7.0 15.0 0.00 0.00 0.00 68 1012.3
20260506161556 64 190 7.0 16.0 0.00 0.00 0.00 68 1012.2
20260506155238 65 165 10.0 19.0 0.00 0.00 0.00 66 1012.2
20260506154736 65 153 10.0 18.0 0.00 0.00 0.00 66 1012.2
20260506154236 65 173 11.0 18.0 0.00 0.00 0.00 67 1012.3
20260506153731 65 174 11.0 21.0 0.00 0.00 0.00 66 1012.3
20260506153213 65 195 11.0 20.0 0.00 0.00 0.00 66 1012.2
20260506152754 65 183 11.0 22.0 0.00 0.00 0.00 66 1012.0
20260506152324 66 201 10.0 22.0 0.00 0.00 0.00 66 1012.0
20260506151202 66 189 11.0 18.0 0.00 0.00 0.00 65 1012.0
20260506150706 66 194 11.0 20.0 0.00 0.00 0.00 65 1011.8
20260506150250 66 180 11.0 20.0 0.00 0.00 0.00 65 1011.9
20260506145139 67 199 11.0 22.0 0.00 0.00 0.00 64 1011.9
20260506144642 67 188 10.0 19.0 0.00 0.00 0.00 63 1012.0
20260506144221 67 169 10.0 18.0 0.00 0.00 0.00 64 1011.9
20260506143222 67 178 9.0 20.0 0.00 0.00 0.00 63 1011.9
20260506142204 67 192 9.0 22.0 0.00 0.00 0.00 63 1012.0
20260506141746 67 187 10.0 22.0 0.00 0.00 0.00 63 1012.0
20260506140106 67 190 10.0 20.0 0.00 0.00 0.00 60 1011.9
20260506135612 67 206 10.0 20.0 0.00 0.00 0.00 61 1012.0
20260506135153 67 181 10.0 19.0 0.00 0.00 0.00 60 1012.0
20260506134108 68 205 11.0 23.0 0.00 0.00 0.00 58 1012.0
20260506133559 68 179 9.0 21.0 0.00 0.00 0.00 57 1011.9
20260506133052 69 171 9.0 21.0 0.00 0.00 0.00 56 1011.9
20260506132555 68 170 10.0 20.0 0.00 0.00 0.00 56 1012.1
20260506132044 68 172 7.0 21.0 0.00 0.00 0.00 58 1012.2
20260506131549 68 190 3.0 13.0 0.00 0.00 0.00 55 1012.3
20260506131037 68 171 3.0 16.0 0.00 0.00 0.00 58 1012.3
20260506130535 68 175 4.0 16.0 0.00 0.00 0.00 57 1012.4
20260506130037 68 184 6.0 16.0 0.00 0.00 0.00 60 1012.5
20260506125533 67 167 9.0 16.0 0.00 0.00 0.00 57 1012.5
20260506125032 67 117 6.0 17.0 0.00 0.00 0.00 57 1012.5
20260506124613 67 186 7.0 17.0 0.00 0.00 0.00 58 1012.7
20260506124153 67 153 6.0 17.0 0.00 0.00 0.00 59 1012.7
20260506123105 67 153 6.0 19.0 0.00 0.00 0.00 60 1012.7
20260506122031 67 142 6.0 21.0 0.00 0.00 0.00 59 1012.7
20260506121526 67 187 6.0 21.0 0.00 0.00 0.00 60 1012.8
20260506121025 67 157 5.0 17.0 0.00 0.00 0.00 60 1012.7
20260506120513 68 182 5.0 15.0 0.00 0.00 0.00 58 1012.7
20260506120016 68 146 5.0 17.0 0.00 0.00 0.00 59 1012.7
20260506115512 67 184 8.0 21.0 0.00 0.00 0.00 59 1012.7
20260506115014 68 165 9.0 21.0 0.00 0.00 0.00 58 1012.8
20260506114512 67 167 7.0 17.0 0.00 0.00 0.00 62 1012.8
20260506114010 67 159 6.0 20.0 0.00 0.00 0.00 63 1012.8
20260506113509 67 153 4.0 20.0 0.00 0.00 0.00 61 1012.8
20260506113002 67 179 3.0 9.0 0.00 0.00 0.00 61 1012.8
20260506112605 67 165 4.0 14.0 0.00 0.00 0.00 61 1012.9
20260506111500 67 166 6.0 19.0 0.00 0.00 0.00 57 1012.8
20260506110950 67 165 7.0 17.0 0.00 0.00 0.00 56 1012.9
20260506110446 67 195 9.0 19.0 0.00 0.00 0.00 57 1012.9
20260506105950 67 163 8.0 19.0 0.00 0.00 0.00 55 1012.8
20260506105548 67 188 6.0 16.0 0.00 0.00 0.00 57 1012.8
20260506104602 67 176 10.0 21.0 0.00 0.00 0.00 51 1012.8